FW7101 Weather Reports


time (UTC)temp
C
wind
direction
speed
KPH
gust
KPH
rain 1hr
cm
rain 24hr
cm
rain mn
cm
humidity
%
barometer
mb
20260503211555 16 9 9.7 17.7 0.00 0.00 0.00 69 1014.2
20260503210022 17 9 11.3 19.3 0.00 0.00 0.00 68 1014.2
20260503204558 17 9 11.3 20.9 0.00 0.00 0.00 69 1014.4
20260503203024 16 9 9.7 19.3 0.00 0.00 0.00 71 1014.3
20260503201546 16 9 12.9 20.9 0.00 0.00 0.00 74 1014.6
20260503200012 15 9 8.0 17.7 0.00 0.00 0.00 77 1014.5
20260503194546 15 9 8.0 16.1 0.00 0.00 0.00 77 1014.6
20260503193013 16 9 8.0 12.9 0.00 0.00 0.00 76 1014.8
20260503191538 16 9 6.4 16.1 0.00 0.00 0.00 76 1014.8
20260503190005 16 9 1.6 11.3 0.00 0.00 0.00 75 1014.8
20260503184535 16 9 3.2 12.9 0.00 0.00 0.00 77 1014.9
20260503183009 16 9 1.6 11.3 0.00 0.00 0.00 76 1014.8
20260503181525 15 9 8.0 14.5 0.00 0.00 0.00 74 1015.0
20260503180101 16 9 0.0 6.4 0.00 0.00 0.00 73 1014.9
20260503174528 15 9 1.6 9.7 0.00 0.00 0.00 74 1014.8
20260503173115 15 9 0.0 1.6 0.00 0.00 0.00 78 1014.7
20260503171533 14 9 0.0 0.0 0.00 0.00 0.00 83 1014.7
20260503014553 14 9 4.8 12.9 0.00 0.00 0.00 84 1012.0
20260503013004 14 9 4.8 12.9 0.00 0.00 0.00 84 1012.0
20260503004528 15 9 6.4 11.3 0.00 0.00 0.00 82 1012.1
20260503003057 15 9 8.0 16.1 0.00 0.00 0.00 81 1012.1
20260502224506 15 9 8.0 16.1 0.00 0.00 0.00 82 1013.0
20260502223040 15 9 6.4 16.1 0.00 0.00 0.00 83 1013.2
20260502221601 15 9 8.0 14.5 0.00 0.00 0.00 80 1013.4
20260502220031 15 9 8.0 14.5 0.00 0.00 0.00 80 1013.5
20260502214503 15 9 8.0 16.1 0.00 0.00 0.00 81 1013.9
20260502213033 15 9 6.4 16.1 0.00 0.00 0.00 81 1014.1